Weather History for Taloyoak, NU

Change the Weather History Date:

Saturday, November 16, 2013

  Actual Average Record
Temperature  
Mean Temperature -22 °F -  
Max Temperature -18 °F -5 °F 21 °F (2004)
Min Temperature -26 °F -15 °F -29 °F (2000)
Degree Days  
Heating Degree Days 87    
Moisture  
Dew Point -25 °F    
Average Humidity 72    
Maximum Humidity 91    
Minimum Humidity 52    
Precipitation  
Precipitation 0.00 in - - ()
Sea Level Pressure  
Sea Level Pressure 29.34 in    
Wind  
Wind Speed 6 mph ()    
Max Wind Speed 15 mph    
Max Gust Speed -    
Visibility 11.8 miles    
Events Fog , Snow    
Averages and records for this station are not official NWS values.
T = Trace of Precipitation, MM = Missing Value Source: Averaged Metar Reports

Daily Weather History Graph

Daily Weather History Graph

Search for Another Location

Airport:

Trip Planner

Search our weather history database for the weather conditions in past years. The results will help you decide how hot, cold, wet, or windy it might be!

Date:

Astronomy

Nov. 16, 2013 Rise Set
Actual Time 10:02 AM CST 1:54 PM CST
Civil Twilight 8:26 AM CST 3:30 PM CST
Nautical Twilight 7:05 AM CST 4:51 PM CST
Astronomical Twilight 5:54 AM CST 6:02 PM CST
Moon 2:08 PM CST (11/16) 8:15 AM CST (11/16)
Length of Visible Light 7h 03m
Length of Day
3h 52m
Waxing Gibbous, 99% of the Moon is Illuminated
Nov 16
Waxing Gibbous
Nov 17
Full
Nov 25
Last Quarter
Dec 2
New
Dec 9
First Quarter

Hourly Weather History & Observations

Time (CST) Temp. Windchill Dew Point Humidity Pressure Visibility Wind Dir Wind Speed Gust Speed Precip Events Conditions
12:00 AM -4 °F - -9 °F 68% 29.18 in 7 mi SW 3.5 mph - - Snow Light Snow
12:00 AM -4.0 °F -16.3 °F -9.4 °F 78% 29.18 in 8.0 mi SW 5.8 mph - N/A Snow Light Snow
1:00 AM -2.2 °F -18.9 °F -7.6 °F 78% 29.20 in 8.0 mi SW 10.4 mph - N/A Snow Light Snow
2:00 AM -2.2 °F -22.2 °F -9.4 °F 71% 29.23 in 3.0 mi WSW 15.0 mph - N/A Snow Ice Crystals
3:00 AM -5.8 °F -21.2 °F -9.4 °F 84% 29.26 in 4.0 mi WSW 8.1 mph - N/A   Ice Crystals
4:00 AM -7.6 °F -26.6 °F -13.0 °F 77% 29.28 in 12.0 mi SW 11.5 mph - N/A   Mostly Cloudy
5:00 AM -18.4 °F -35.1 °F -23.8 °F 76% 29.29 in 10.0 mi WSW 6.9 mph - N/A   Mostly Cloudy
6:00 AM -19 °F - -27 °F 52% 29.32 in 15 mi WSW 5.8 mph - - Snow Snow
6:00 AM -18.4 °F -28.9 °F -27.4 °F 63% 29.32 in 15.0 mi WSW 3.5 mph - N/A   Scattered Clouds
7:00 AM -20.2 °F -37.3 °F -25.6 °F 76% 29.34 in 8.0 mi SW 6.9 mph - N/A   Scattered Clouds
8:00 AM -22.0 °F - -27.4 °F 76% 29.35 in 4.0 mi SW 2.3 mph - N/A   Ice Crystals
9:00 AM -22.0 °F -46.6 °F -27.4 °F 76% 29.35 in 7.0 mi SSE 13.8 mph - N/A   Partly Cloudy
10:00 AM -22.0 °F -39.4 °F -27.4 °F 76% 29.36 in 7.0 mi South 6.9 mph - N/A   Partly Cloudy
11:00 AM -23.8 °F -43.2 °F -29.2 °F 76% 29.37 in 12.0 mi South 8.1 mph - N/A   Partly Cloudy
12:00 PM -26 °F - -32 °F 59% 29.38 in 15 mi SSE 2.3 mph - - Snow Snow
12:00 PM -25.6 °F -37.1 °F -31.0 °F 76% 29.38 in 15.0 mi South 3.5 mph - N/A   Partly Cloudy
1:00 PM -23.8 °F -41.6 °F -32.8 °F 63% 29.38 in 15.0 mi South 6.9 mph - N/A   Partly Cloudy
2:00 PM -23.8 °F -41.6 °F -31.0 °F 69% 29.38 in 15.0 mi South 6.9 mph - N/A   Partly Cloudy
3:00 PM -23.8 °F -45.8 °F -29.2 °F 76% 29.39 in 15.0 mi South 10.4 mph - N/A   Partly Cloudy
4:00 PM -23.8 °F -45.8 °F -32.8 °F 63% 29.39 in 15.0 mi SSE 10.4 mph - N/A   Partly Cloudy
5:00 PM -25.6 °F -37.1 °F -31.0 °F 76% 29.39 in 14.0 mi SE 3.5 mph - N/A   Partly Cloudy
6:00 PM -23 °F - -29 °F 59% 29.39 in 15 mi South 8.1 mph - - Snow Snow
6:00 PM -23.8 °F -44.5 °F -29.2 °F 76% 29.39 in 15.0 mi South 9.2 mph - N/A   Partly Cloudy
7:00 PM -23.8 °F -41.6 °F -29.2 °F 76% 29.39 in 15.0 mi South 6.9 mph - N/A   Partly Cloudy
8:00 PM -23.8 °F - -34.6 °F 57% 29.39 in 15.0 mi Calm Calm - N/A   Clear
9:00 PM -25.6 °F -41.9 °F -31.0 °F 76% 29.39 in 15.0 mi South 5.8 mph - N/A   Partly Cloudy
10:00 PM -23.8 °F -41.6 °F -27.4 °F 83% 29.38 in 15.0 mi South 6.9 mph - N/A   Partly Cloudy
11:00 PM -23.8 °F -45.8 °F -25.6 °F 91% 29.38 in 15.0 mi SSE 10.4 mph - N/A Fog Partly Cloudy